Weather History for LZIB - September, 2013

Change the Weather History Date:

Monday, September 16, 2013

  Actual Average Record
Temperature  
Mean Temperature 64 °F -  
Max Temperature 73 °F 62 °F 77 °F (1999)
Min Temperature 56 °F 46 °F 42 °F (1997)
Growing Degree Days 14 (Base 50)    
Moisture  
Dew Point 57 °F    
Average Humidity 78    
Maximum Humidity 100    
Minimum Humidity 39    
Precipitation  
Precipitation 0.87 in - - ()
Sea Level Pressure  
Sea Level Pressure 29.69 in    
Wind  
Wind Speed 4 mph ()    
Max Wind Speed 13 mph    
Max Gust Speed -    
Visibility 8.3 miles    
Events Rain    
Averages and records for this station are not official NWS values.
T = Trace of Precipitation, MM = Missing Value Source: Averaged Metar Reports

Daily Weather History Graph

Daily Weather History Graph

Search for Another Location

Airport or City:

Trip Planner

Search our weather history database for the weather conditions in past years. The results will help you decide how hot, cold, wet, or windy it might be!

Date:

Astronomy

Sep. 16, 2013 Rise Set
Actual Time 6:29 AM CEST 7:01 PM CEST
Civil Twilight 5:58 AM CEST 7:32 PM CEST
Nautical Twilight 5:20 AM CEST 8:09 PM CEST
Astronomical Twilight 4:42 AM CEST 8:48 PM CEST
Moon 5:08 PM CEST (9/16) 2:42 AM CEST (9/16)
Length of Visible Light 13h 34m
Length of Day
12h 32m
Waxing Gibbous, 88% of the Moon is Illuminated
Sep 16
Waxing Gibbous
Sep 19
Full
Sep 27
Last Quarter
Oct 5
New
Oct 12
First Quarter

Hourly Weather History & Observations

Time (CEST) Temp. Dew Point Humidity Pressure Visibility Wind Dir Wind Speed Gust Speed Precip Events Conditions
12:00 AM 59 °F 57 °F 91% 29.76 in 19 mi NNE 2.2 mph - -   Mostly Cloudy
12:00 AM 59.0 °F 57.2 °F 94% 29.74 in - NNE 3.5 mph - N/A   Clear
12:30 AM 59.0 °F 57.2 °F 94% 29.74 in - North 4.6 mph - N/A   Clear
1:00 AM 58 °F 56 °F 93% 29.75 in 16 mi NNE 4.5 mph - -   Scattered Clouds
1:00 AM 59.0 °F 57.2 °F 94% 29.74 in - NE 4.6 mph - N/A   Clear
1:30 AM 57.2 °F 57.2 °F 100% 29.74 in - NE 3.5 mph - N/A   Clear
2:00 AM 58 °F 56 °F 93% 29.74 in 16 mi NE 2.2 mph - -   Partly Cloudy
2:00 AM 57.2 °F 55.4 °F 94% 29.74 in - NE 2.3 mph - N/A   Clear
2:30 AM 57.2 °F 55.4 °F 94% 29.71 in - NNE 2.3 mph - N/A   Clear
3:00 AM 57 °F 56 °F 94% 29.73 in 12 mi ENE 2.2 mph - -   Mostly Cloudy
3:00 AM 57.2 °F 55.4 °F 94% 29.71 in - ENE 2.3 mph - N/A   Clear
3:30 AM 57.2 °F 57.2 °F 100% 29.71 in - NE 2.3 mph - N/A   Clear
4:00 AM 57 °F 56 °F 97% 29.73 in 12 mi Calm Calm - -   Mostly Cloudy
4:00 AM 57.2 °F 55.4 °F 94% 29.71 in - Calm Calm - N/A   Clear
4:30 AM 57.2 °F 57.2 °F 100% 29.71 in - NNW 2.3 mph - N/A   Clear
5:00 AM 57 °F 56 °F 95% 29.72 in 12 mi Calm Calm - -   Mostly Cloudy
5:00 AM 57.2 °F 55.4 °F 94% 29.71 in - Calm Calm - N/A   Clear
5:30 AM 57.2 °F 55.4 °F 94% 29.71 in - Variable 1.2 mph - N/A   Clear
6:00 AM 58 °F 57 °F 97% 29.73 in 12 mi West 2.2 mph - -   Partly Cloudy
6:00 AM 57.2 °F 57.2 °F 100% 29.71 in 6.2 mi West 2.3 mph - N/A   Scattered Clouds
6:30 AM 57.2 °F 55.4 °F 94% 29.71 in 6.2 mi Variable 2.3 mph - N/A   Scattered Clouds
7:00 AM 59.0 °F 57.2 °F 94% 29.71 in 6.2 mi WSW 2.3 mph - N/A   Mostly Cloudy
7:30 AM 60.8 °F 59.0 °F 94% 29.71 in 6.2 mi Variable 2.3 mph - N/A   Mostly Cloudy
8:00 AM 62 °F 58 °F 84% 29.72 in 9 mi 2.2 mph - -   Scattered Clouds
8:00 AM 62.6 °F 59.0 °F 88% 29.71 in 6.2 mi NW 4.6 mph - N/A   Mostly Cloudy
8:30 AM 62.6 °F 59.0 °F 88% 29.71 in 6.2 mi Variable 2.3 mph - N/A   Partly Cloudy
9:00 AM 64 °F 58 °F 75% 29.73 in 9 mi NW 6.7 mph - -   Partly Cloudy
9:00 AM 64.4 °F 59.0 °F 83% 29.71 in 6.2 mi NW 8.1 mph - N/A   Scattered Clouds
9:30 AM 64.4 °F 59.0 °F 83% 29.74 in 6.2 mi NW 5.8 mph - N/A   Mostly Cloudy
10:00 AM 64 °F 58 °F 75% 29.74 in 12 mi NW 6.7 mph - -   Mostly Cloudy
10:00 AM 64.4 °F 59.0 °F 83% 29.74 in 6.2 mi NW 6.9 mph - N/A   Mostly Cloudy
10:30 AM 68.0 °F 59.0 °F 73% 29.74 in 6.2 mi NNW 5.8 mph - N/A   Scattered Clouds
11:00 AM 69 °F 56 °F 55% 29.73 in 12 mi NW 13.4 mph - -   Scattered Clouds
11:00 AM 69.8 °F 55.4 °F 60% 29.74 in 6.2 mi NW 12.7 mph - N/A   Scattered Clouds
11:30 AM 68.0 °F 55.4 °F 64% 29.71 in 6.2 mi NNW 11.5 mph - N/A   Scattered Clouds
12:00 PM 71 °F 55 °F 47% 29.72 in 19 mi NNW 11.2 mph - -   Partly Cloudy
12:00 PM 71.6 °F 55.4 °F 57% 29.71 in 6.2 mi NNW 11.5 mph - N/A   Scattered Clouds
12:30 PM 71.6 °F 53.6 °F 53% 29.71 in 6.2 mi NW 11.5 mph - N/A   Scattered Clouds
1:00 PM 72 °F 52 °F 39% 29.71 in 31 mi NW 6.7 mph - -   Scattered Clouds
1:00 PM 73.4 °F 53.6 °F 50% 29.71 in 6.2 mi NNW 5.8 mph - N/A   Scattered Clouds
1:30 PM 71.6 °F 53.6 °F 53% 29.71 in 6.2 mi NNW 8.1 mph - N/A   Scattered Clouds
2:00 PM 71 °F 54 °F 44% 29.71 in 31 mi WNW 6.7 mph - -   Scattered Clouds
2:00 PM 71.6 °F 53.6 °F 53% 29.71 in 6.2 mi WNW 6.9 mph - N/A   Scattered Clouds
2:30 PM 71.6 °F 55.4 °F 57% 29.71 in 6.2 mi NW 6.9 mph - N/A   Mostly Cloudy
3:00 PM 72 °F 54 °F 43% 29.69 in 31 mi NW 6.7 mph - -   Scattered Clouds
3:00 PM 73.4 °F 55.4 °F 53% 29.68 in 6.2 mi NNW 6.9 mph - N/A   Scattered Clouds
3:30 PM 69.8 °F 55.4 °F 60% 29.68 in 6.2 mi NNW 8.1 mph - N/A   Scattered Clouds
4:00 PM 71 °F 56 °F 49% 29.67 in 31 mi NNW 4.5 mph - -   Scattered Clouds
4:00 PM 69.8 °F 55.4 °F 60% 29.68 in 6.2 mi NNW 5.8 mph - N/A   Mostly Cloudy
4:30 PM 69.8 °F 55.4 °F 60% 29.65 in 6.2 mi NNW 3.5 mph - N/A   Mostly Cloudy
5:00 PM 70 °F 55 °F 50% 29.65 in 31 mi Calm Calm - -   Scattered Clouds
5:00 PM 69.8 °F 55.4 °F 60% 29.65 in 6.2 mi Variable 1.2 mph - N/A   Mostly Cloudy
5:30 PM 69.8 °F 55.4 °F 60% 29.65 in 6.2 mi Calm Calm - N/A   Mostly Cloudy
6:00 PM 69 °F 56 °F 55% 29.65 in 31 mi Calm Calm - -   Scattered Clouds
6:00 PM 68.0 °F 57.2 °F 68% 29.65 in 6.2 mi Calm Calm - N/A   Mostly Cloudy
6:30 PM 68.0 °F 57.2 °F 68% 29.65 in 6.2 mi Calm Calm - N/A Rain Light Rain
7:00 PM 67 °F 58 °F 66% 29.63 in 25 mi East 2.2 mph - - Rain Light Rain
7:00 PM 66.2 °F 59.0 °F 78% 29.62 in 6.2 mi Variable 1.2 mph - N/A   Mostly Cloudy
7:30 PM 66.2 °F 59.0 °F 78% 29.62 in 6.2 mi East 3.5 mph - N/A   Mostly Cloudy
8:00 PM 65 °F 60 °F 80% 29.62 in 16 mi NNE 4.5 mph - -   Partly Cloudy
8:00 PM 64.4 °F 60.8 °F 88% 29.62 in 6.2 mi NE 4.6 mph - N/A   Mostly Cloudy
8:30 PM 64.4 °F 60.8 °F 88% 29.62 in 6.2 mi NE 3.5 mph - N/A   Mostly Cloudy
9:00 PM 63 °F 60 °F 87% 29.61 in 12 mi NE 2.2 mph - -   Overcast
9:00 PM 62.6 °F 60.8 °F 94% 29.59 in 6.2 mi NE 2.3 mph - N/A   Mostly Cloudy
9:30 PM 62.6 °F 60.8 °F 94% 29.59 in 6.2 mi North 3.5 mph - N/A Rain Light Rain
10:00 PM 63 °F 59 °F 83% 29.59 in 12 mi NNW 6.7 mph - - Rain Light Rain
10:00 PM 62.6 °F 59.0 °F 88% 29.59 in 6.2 mi NNW 6.9 mph - N/A Rain Light Rain
10:30 PM 60.8 °F 59.0 °F 94% 29.56 in 6.2 mi North 5.8 mph - N/A Rain Light Rain
11:00 PM 61 °F 60 °F 93% 29.56 in 12 mi NE 4.5 mph - - Rain Light Rain
11:00 PM 60.8 °F 59.0 °F 94% 29.56 in 6.2 mi NE 3.5 mph - N/A Rain Light Rain
11:30 PM 60.8 °F 59.0 °F 94% 29.56 in 4.3 mi NE 3.5 mph - N/A Rain Light Rain